Tracking 35030 objects as of 11-Aug-2026
HD Live streaming from Space Station
objects crossing your sky now

OF-2


OF-2 is no longer on orbit
OF-2 is classified as:


NORAD ID: 45113
Int'l Code: 2019-071C
Launch date: November 2, 2019
Source: United States (US)
Launch site: WALLOPS ISLAND (WLPIS)
Decay date: 2023-03-20

Uplink (MHz):
Downlink (MHz): 435.040/2426.000
Beacon (MHz):
Mode: 9k6 GMSK/3-5M QPSK
Call sign: KG5UAK
Status: Reentered

Your satellite tracking list
Your tracking list is empty




NASA's NSSDC Master Catalog

Two Line Element Set (TLE):
1 45113U 19071C   23078.33163040  .09910951  12392-4  87944-3 0  9992
2 45113  51.6072 118.3346 0002391   0.6771 359.4257 16.38334374176268
Source of the keplerian elements: AFSPC